This demonstration page uses our WeatherBlox Daily Observations layout. Learn more.

Left ArrowRight Arrow

Hourly Observations for June 16, 2018

Temp ( °F °C ) Dew Point ( °F °C ) Humidity (%) Winds ( mph kmh ) Pressure ( in mb ) Visibility ( mi km ) Precip ( " mm )
12:53 am 00:53 Clear 84 28.9 65 18.3 53 53 S 16 26 29.68 1005 10 16 0.00 0.00
1:53 am 01:53 Clear 82 27.8 66 18.9 58 58 S 15 24 29.68 1005 10 16 0.00 0.00
2:53 am 02:53 Clear 80 26.7 65 18.3 60 60 S 18 30 29.68 1005 10 16 0.00 0.00
3:53 am 03:53 Clear 79 26.1 65 18.3 62 62 S 15 24 29.65 1004 10 16 0.00 0.00
4:53 am 04:53 Clear 78 25.6 65 18.3 64 64 S 14 22 29.66 1005 10 16 0.00 0.00
5:53 am 05:53 Clear 77 25 65 18.3 66 66 S 9 15 29.69 1005 10 16 0.00 0.00
6:53 am 06:53 Sunny 77 25 65 18.3 66 66 S 12 19 29.70 1006 10 16 0.00 0.00
7:53 am 07:53 Sunny 77 25 65 18.3 66 66 S 13 20 29.70 1006 10 16 0.00 0.00
8:53 am 08:53 Sunny 81 27.2 65 18.3 58 58 S 15 24 29.69 1006 10 16 0.00 0.00
9:53 am 09:53 Sunny 84 28.9 65 18.3 53 53 S 16 26 29.69 1006 10 16 0.00 0.00
10:53 am 10:53 Sunny 88 31.1 65 18.3 46 46 SSW 17 28 29.69 1006 10 16 0.00 0.00
11:53 am 11:53 Sunny 91 32.8 64 17.8 41 41 SSW 21 33 29.68 1005 10 16 0.00 0.00
12:53 pm 12:53 Sunny 94 34.4 64 17.8 37 37 SSW 16 26 29.67 1005 10 16 0.00 0.00
1:53 pm 13:53 Sunny 97 36.1 64 17.8 34 34 S 17 28 29.67 1005 10 16 0.00 0.00
2:53 pm 14:53 Sunny 94 34.4 63 17.2 36 36 S 20 31 29.67 1005 10 16 0.00 0.00
3:53 pm 15:53 Sunny 94 34.4 63 17.2 36 36 S 18 30 29.67 1005 10 16 0.00 0.00
4:53 pm 16:53 Sunny 92 33.3 62 16.7 37 37 S 17 28 29.68 1005 10 16 0.00 0.00
5:53 pm 17:53 Sunny 90 32.2 64 17.8 42 42 S 14 22 29.68 1005 10 16 0.00 0.00
6:53 pm 18:53 Sunny 92 33.3 61 16.1 36 36 S 22 35 29.67 1005 10 16 0.00 0.00
7:53 pm 19:53 Sunny 90 32.2 62 16.7 39 39 S 15 24 29.68 1005 10 16 0.00 0.00
8:53 pm 20:53 Sunny 87 30.6 63 17.2 45 45 S 12 19 29.68 1005 10 16 0.00 0.00
9:53 pm 21:53 Clear 85 29.4 65 18.3 51 51 S 14 22 29.70 1006 10 16 0.00 0.00
10:53 pm 22:53 Clear 83 28.3 64 17.8 53 53 S 12 19 29.72 1007 10 16 0.00 0.00
11:53 pm 23:53 Clear 83 28.3 65 18.3 55 55 S 15 24 29.72 1007 10 16 0.00 0.00

Powered by AerisWeather